This is the latest recevied weather packets stored in our database for station/object LY3FF-10. If no packets are shown the sender has not sent any weather packets the latest 10 day(s).
| Time | Temp. | Humidity | Pressure | Rain* | Wind** | Luminosity | Snow |
|---|---|---|---|---|---|---|---|
| 1787880315 | 11.67° C | 82% | 1006.1 hPa | - | - | - | - |
| 1787879510 | 11.67° C | 82% | 1006.2 hPa | - | - | - | - |
| 1787878624 | 11.67° C | 82% | 1006.4 hPa | - | - | - | - |
| 1787877760 | 11.67° C | 81% | 1006.4 hPa | - | - | - | - |
| 1787876894 | 12.22° C | 81% | 1006.2 hPa | - | - | - | - |
| 1787876090 | 12.22° C | 81% | 1006.4 hPa | - | - | - | - |
| 1787875220 | 12.22° C | 81% | 1006.5 hPa | - | - | - | - |
| 1787874375 | 12.78° C | 80% | 1006.4 hPa | - | - | - | - |
| 1787873645 | 12.78° C | 80% | 1006.5 hPa | - | - | - | - |
| 1787872800 | 12.78° C | 80% | 1006.4 hPa | - | - | - | - |
| 1787872020 | 12.78° C | 80% | 1006.3 hPa | - | - | - | - |
| 1787871170 | 13.33° C | 79% | 1006.5 hPa | - | - | - | - |
| 1787870324 | 13.33° C | 79% | 1006.4 hPa | - | - | - | - |
| 1787869605 | 12.78° C | 78% | 1006.5 hPa | - | - | - | - |
| 1787868840 | 13.33° C | 78% | 1006.5 hPa | - | - | - | - |
| 1787867940 | 13.33° C | 77% | 1006.4 hPa | - | - | - | - |
| 1787867164 | 13.33° C | 77% | 1006.4 hPa | - | - | - | - |
| 1787866320 | 13.33° C | 77% | 1006.4 hPa | - | - | - | - |
| 1787865535 | 13.89° C | 76% | 1006.4 hPa | - | - | - | - |
| 1787864690 | 13.89° C | 76% | 1006.4 hPa | - | - | - | - |
| 1787863855 | 13.89° C | 74% | 1006.3 hPa | - | - | - | - |
| 1787863064 | 14.44° C | 74% | 1006.2 hPa | - | - | - | - |
| 1787862190 | 14.44° C | 73% | 1006.1 hPa | - | - | - | - |
| 1787861375 | 15° C | 73% | 1005.9 hPa | - | - | - | - |
| 1787860490 | 15° C | 72% | 1005.8 hPa | - | - | - | - |
* Rain since midnight (hover to see other rain measurements)
** Current wind speed in m/s (hover to see current wind gust speed)